Time,TemperatureF,DewpointF,PressureIn,WindDirection,WindDirectionDegrees,WindSpeedMPH,WindSpeedGustMPH,Humidity,HourlyPrecipIn,Conditions,Clouds,dailyrainin,SoftwareType,DateUTC
2013-03-20 00:00:00,20.8,19.0,29.71,NNE,33,9.0,12.0,91,0.00,,,0.15,weatherlink.com 1.10,2013-03-20 04:00:00,
2013-03-20 00:15:00,20.8,19.0,29.71,NNE,30,6.0,9.0,92,0.00,,,0.00,weatherlink.com 1.10,2013-03-20 04:15:00,
2013-03-20 00:30:00,20.6,19.0,29.71,North,360,4.0,6.0,92,0.00,,,0.00,weatherlink.com 1.10,2013-03-20 04:30:00,
2013-03-20 00:45:00,20.6,19.0,29.71,ENE,57,4.0,8.0,92,0.00,,,0.00,weatherlink.com 1.10,2013-03-20 04:45:00,
2013-03-20 01:00:00,20.5,19.0,29.71,NNE,22,1.0,9.0,93,0.00,,,0.00,weatherlink.com 1.10,2013-03-20 05:00:00,
2013-03-20 01:15:00,20.1,18.0,29.71,NNE,24,2.0,8.0,93,0.00,,,0.00,weatherlink.com 1.10,2013-03-20 05:15:00,
2013-03-20 01:30:00,19.9,18.0,29.71,NE,53,3.0,10.0,92,0.00,,,0.00,weatherlink.com 1.10,2013-03-20 05:30:00,
2013-03-20 01:45:00,19.9,18.0,29.72,NE,52,5.0,11.0,90,0.00,,,0.00,weatherlink.com 1.10,2013-03-20 05:45:00,
2013-03-20 02:00:00,19.7,17.0,29.71,NNW,348,2.0,15.0,88,0.00,,,0.00,weatherlink.com 1.10,2013-03-20 06:00:00,
2013-03-20 02:15:00,19.4,16.0,29.71,North,5,6.0,11.0,88,0.00,,,0.00,weatherlink.com 1.10,2013-03-20 06:15:00,
2013-03-20 02:30:00,19.0,16.0,29.71,East,88,5.0,10.0,88,0.00,,,0.00,weatherlink.com 1.10,2013-03-20 06:30:00,
2013-03-20 02:45:00,18.7,16.0,29.71,NE,40,3.0,10.0,88,0.00,,,0.00,weatherlink.com 1.10,2013-03-20 06:45:00,
2013-03-20 03:00:00,18.5,16.0,29.71,NE,37,1.0,8.0,88,0.00,,,0.00,weatherlink.com 1.10,2013-03-20 07:00:00,
2013-03-20 03:15:00,18.5,16.0,29.72,North,5,2.0,8.0,88,0.00,,,0.00,weatherlink.com 1.10,2013-03-20 07:15:00,
2013-03-20 03:30:00,18.4,16.0,29.71,NNE,20,4.0,12.0,88,0.00,,,0.00,weatherlink.com 1.10,2013-03-20 07:30:00,
2013-03-20 03:45:00,18.2,15.0,29.70,ESE,121,1.0,7.0,88,0.00,,,0.00,weatherlink.com 1.10,2013-03-20 07:45:00,
2013-03-20 04:00:00,18.3,15.0,29.70,ENE,69,4.0,9.0,88,0.00,,,0.00,weatherlink.com 1.10,2013-03-20 08:00:00,
2013-03-20 04:15:00,18.4,15.0,29.70,NE,47,0.0,8.0,87,0.00,,,0.00,weatherlink.com 1.10,2013-03-20 08:15:00,
2013-03-20 04:30:00,18.2,15.0,29.70,NE,50,3.0,8.0,86,0.00,,,0.00,weatherlink.com 1.10,2013-03-20 08:30:00,
2013-03-20 04:45:00,18.4,15.0,29.71,North,5,1.0,7.0,87,0.00,,,0.00,weatherlink.com 1.10,2013-03-20 08:45:00,
2013-03-20 05:00:00,18.6,15.0,29.71,NNW,336,1.0,10.0,86,0.00,,,0.00,weatherlink.com 1.10,2013-03-20 09:00:00,
2013-03-20 05:15:00,18.4,15.0,29.71,NNE,27,6.0,10.0,85,0.00,,,0.00,weatherlink.com 1.10,2013-03-20 09:15:00,
2013-03-20 05:30:00,18.3,15.0,29.71,NNE,18,4.0,9.0,86,0.00,,,0.00,weatherlink.com 1.10,2013-03-20 09:30:00,
2013-03-20 05:46:00,18.2,15.0,29.72,NE,55,5.0,10.0,87,0.00,,,0.00,weatherlink.com 1.10,2013-03-20 09:46:00,
2013-03-20 06:01:00,18.1,15.0,29.72,ENE,63,1.0,9.0,87,0.00,,,0.00,weatherlink.com 1.10,2013-03-20 10:01:00,
2013-03-20 06:16:00,17.9,15.0,29.73,East,82,3.0,11.0,87,0.00,,,0.00,weatherlink.com 1.10,2013-03-20 10:16:00,
2013-03-20 06:31:00,18.0,15.0,29.72,NE,51,4.0,11.0,87,0.00,,,0.00,weatherlink.com 1.10,2013-03-20 10:31:00,
2013-03-20 06:46:00,18.1,15.0,29.73,NNE,17,0.0,11.0,86,0.00,,,0.00,weatherlink.com 1.10,2013-03-20 10:46:00,
2013-03-20 07:01:00,18.1,15.0,29.73,NNE,22,5.0,9.0,86,0.00,,,0.00,weatherlink.com 1.10,2013-03-20 11:01:00,
2013-03-20 07:16:00,18.1,14.0,29.73,SSE,157,2.0,11.0,85,0.00,,,0.00,weatherlink.com 1.10,2013-03-20 11:16:00,
2013-03-20 07:46:00,17.9,14.0,29.73,NNE,16,5.0,8.0,85,0.00,,,0.00,weatherlink.com 1.10,2013-03-20 11:46:00,
2013-03-20 08:31:00,17.7,15.0,29.73,SW,215,3.0,9.0,87,0.00,,,0.00,weatherlink.com 1.10,2013-03-20 12:31:00,
2013-03-20 08:46:00,17.7,14.0,29.73,NE,47,6.0,15.0,86,0.00,,,0.00,weatherlink.com 1.10,2013-03-20 12:46:00,
2013-03-20 09:01:00,18.4,14.0,29.73,East,90,2.0,18.0,84,0.00,,,0.00,weatherlink.com 1.10,2013-03-20 13:01:00,
2013-03-20 09:16:00,19.2,15.0,29.73,NE,46,5.0,12.0,83,0.00,,,0.00,weatherlink.com 1.10,2013-03-20 13:16:00,
2013-03-20 09:31:00,19.8,15.0,29.73,ENE,58,5.0,17.0,82,0.00,,,0.00,weatherlink.com 1.10,2013-03-20 13:31:00,
2013-03-20 09:46:00,20.3,16.0,29.73,SW,223,4.0,12.0,83,0.00,,,0.00,weatherlink.com 1.10,2013-03-20 13:46:00,
2013-03-20 10:01:00,20.9,17.0,29.73,ENE,59,3.0,13.0,83,0.00,,,0.00,weatherlink.com 1.10,2013-03-20 14:01:00,
2013-03-20 10:16:00,20.9,16.0,29.73,NNE,29,6.0,14.0,82,0.00,,,0.00,weatherlink.com 1.10,2013-03-20 14:16:00,
2013-03-20 10:31:00,21.5,17.0,29.73,SSW,193,2.0,14.0,82,0.00,,,0.00,weatherlink.com 1.10,2013-03-20 14:31:00,
2013-03-20 11:31:00,24.3,19.0,29.74,South,186,5.0,14.0,79,0.00,,,0.00,weatherlink.com 1.10,2013-03-20 15:31:00,
2013-03-20 11:46:00,25.7,19.0,29.74,NNE,15,6.0,10.0,76,0.00,,,0.00,weatherlink.com 1.10,2013-03-20 15:46:00,
2013-03-20 12:01:00,25.9,19.0,29.74,ESE,123,3.0,12.0,75,0.01,,,0.01,weatherlink.com 1.10,2013-03-20 16:01:00,
2013-03-20 12:16:00,25.3,18.0,29.74,NNW,346,10.0,16.0,75,0.02,,,0.02,weatherlink.com 1.10,2013-03-20 16:16:00,
2013-03-20 12:31:00,26.3,20.0,29.74,ENE,68,3.0,10.0,76,0.02,,,0.02,weatherlink.com 1.10,2013-03-20 16:31:00,
2013-03-20 12:46:00,25.1,18.0,29.74,NNE,12,10.0,16.0,73,0.03,,,0.03,weatherlink.com 1.10,2013-03-20 16:46:00,
2013-03-20 13:01:00,26.3,19.0,29.75,NNW,330,3.0,17.0,75,0.03,,,0.04,weatherlink.com 1.10,2013-03-20 17:01:00,
2013-03-20 13:16:00,27.5,20.0,29.74,South,172,6.0,9.0,73,0.03,,,0.05,weatherlink.com 1.10,2013-03-20 17:16:00,
2013-03-20 13:31:00,27.3,20.0,29.73,NE,40,4.0,13.0,74,0.04,,,0.06,weatherlink.com 1.10,2013-03-20 17:31:00,
2013-03-20 13:46:00,25.8,18.0,29.73,WSW,242,7.0,10.0,73,0.04,,,0.07,weatherlink.com 1.10,2013-03-20 17:46:00,
2013-03-20 14:01:00,25.8,18.0,29.73,West,263,1.0,8.0,73,0.03,,,0.07,weatherlink.com 1.10,2013-03-20 18:01:00,
2013-03-20 14:16:00,25.4,17.0,29.73,SSW,199,3.0,11.0,70,0.02,,,0.07,weatherlink.com 1.10,2013-03-20 18:16:00,
2013-03-20 14:46:00,26.6,19.0,29.72,South,169,1.0,4.0,72,0.01,,,0.08,weatherlink.com 1.10,2013-03-20 18:46:00,
2013-03-20 15:01:00,25.7,17.0,29.72,South,180,6.0,9.0,70,0.01,,,0.08,weatherlink.com 1.10,2013-03-20 19:01:00,
2013-03-20 15:31:00,25.9,18.0,29.73,West,273,3.0,7.0,71,0.01,,,0.08,weatherlink.com 1.10,2013-03-20 19:31:00,
2013-03-20 15:46:00,26.1,17.0,29.73,SSW,207,4.0,6.0,69,0.00,,,0.08,weatherlink.com 1.10,2013-03-20 19:46:00,
2013-03-20 16:01:00,26.5,17.0,29.73,WSW,252,1.0,6.0,68,0.00,,,0.08,weatherlink.com 1.10,2013-03-20 20:01:00,
2013-03-20 16:16:00,26.8,17.0,29.73,NNW,337,2.0,5.0,67,0.00,,,0.08,weatherlink.com 1.10,2013-03-20 20:16:00,
2013-03-20 16:32:00,28.3,18.0,29.73,South,184,10.0,10.0,66,0.00,,,0.08,weatherlink.com 1.10,2013-03-20 20:32:00,
2013-03-20 16:47:00,28.1,16.0,29.73,WSW,254,2.0,12.0,60,0.00,,,0.08,weatherlink.com 1.10,2013-03-20 20:47:00,
2013-03-20 17:02:00,27.7,17.0,29.73,WSW,241,1.0,8.0,64,0.01,,,0.09,weatherlink.com 1.10,2013-03-20 21:02:00,
2013-03-20 17:17:00,27.2,16.0,29.73,NW,307,6.0,8.0,62,0.01,,,0.09,weatherlink.com 1.10,2013-03-20 21:17:00,
2013-03-20 17:32:00,26.3,18.0,29.74,NNW,333,6.0,12.0,71,0.01,,,0.09,weatherlink.com 1.10,2013-03-20 21:32:00,
2013-03-20 17:47:00,25.4,19.0,29.74,West,278,1.0,8.0,76,0.01,,,0.09,weatherlink.com 1.10,2013-03-20 21:47:00,
2013-03-20 18:02:00,25.2,20.0,29.74,NE,46,1.0,7.0,79,0.00,,,0.09,weatherlink.com 1.10,2013-03-20 22:02:00,
2013-03-20 18:17:00,24.6,19.0,29.75,ENE,67,5.0,5.0,80,0.00,,,0.09,weatherlink.com 1.10,2013-03-20 22:17:00,
2013-03-20 18:32:00,24.7,19.0,29.75,SSW,211,2.0,6.0,80,0.00,,,0.09,weatherlink.com 1.10,2013-03-20 22:32:00,
2013-03-20 18:47:00,24.5,19.0,29.74,WSW,251,0.0,4.0,79,0.00,,,0.09,weatherlink.com 1.10,2013-03-20 22:47:00,
2013-03-20 19:02:00,24.3,18.0,29.75,West,262,1.0,2.0,78,0.00,,,0.09,weatherlink.com 1.10,2013-03-20 23:02:00,
2013-03-20 19:17:00,24.3,18.0,29.75,NNE,29,1.0,5.0,76,0.00,,,0.09,weatherlink.com 1.10,2013-03-20 23:17:00,
2013-03-20 19:32:00,24.0,17.0,29.74,NNW,332,0.0,3.0,76,0.00,,,0.09,weatherlink.com 1.10,2013-03-20 23:32:00,
2013-03-20 19:47:00,23.3,17.0,29.74,NW,325,4.0,4.0,78,0.00,,,0.09,weatherlink.com 1.10,2013-03-20 23:47:00,
2013-03-20 20:02:00,23.4,17.0,29.74,NNW,344,1.0,4.0,76,0.00,,,0.09,weatherlink.com 1.10,2013-03-21 00:02:00,
2013-03-20 20:17:00,23.0,17.0,29.75,NW,323,0.0,4.0,78,0.00,,,0.09,weatherlink.com 1.10,2013-03-21 00:17:00,
2013-03-20 20:32:00,22.4,17.0,29.75,West,274,0.0,3.0,79,0.00,,,0.09,weatherlink.com 1.10,2013-03-21 00:32:00,
2013-03-20 20:47:00,22.0,17.0,29.76,NNW,338,3.0,6.0,82,0.00,,,0.09,weatherlink.com 1.10,2013-03-21 00:47:00,
2013-03-20 21:02:00,21.9,18.0,29.76,ENE,75,3.0,6.0,84,0.00,,,0.09,weatherlink.com 1.10,2013-03-21 01:02:00,
2013-03-20 21:17:00,21.8,19.0,29.75,NNE,19,3.0,7.0,88,0.00,,,0.09,weatherlink.com 1.10,2013-03-21 01:17:00,
2013-03-20 21:32:00,21.5,19.0,29.75,NE,51,1.0,6.0,90,0.00,,,0.09,weatherlink.com 1.10,2013-03-21 01:32:00,
2013-03-20 21:47:00,20.7,18.0,29.76,ENE,61,0.0,2.0,89,0.00,,,0.09,weatherlink.com 1.10,2013-03-21 01:47:00,
2013-03-20 22:02:00,20.2,18.0,29.77,ENE,76,1.0,4.0,92,0.00,,,0.09,weatherlink.com 1.10,2013-03-21 02:02:00,
2013-03-20 22:17:00,20.7,19.0,29.78,NE,34,0.0,3.0,91,0.00,,,0.09,weatherlink.com 1.10,2013-03-21 02:17:00,
2013-03-20 22:32:00,20.6,18.0,29.78,NE,36,2.0,3.0,91,0.00,,,0.09,weatherlink.com 1.10,2013-03-21 02:32:00,
2013-03-20 22:47:00,20.9,19.0,29.78,NE,41,0.0,4.0,90,0.00,,,0.09,weatherlink.com 1.10,2013-03-21 02:47:00,
2013-03-20 23:02:00,20.9,18.0,29.78,NNE,33,1.0,4.0,89,0.00,,,0.09,weatherlink.com 1.10,2013-03-21 03:02:00,
2013-03-20 23:32:00,20.5,18.0,29.77,NE,47,1.0,5.0,91,0.00,,,0.09,weatherlink.com 1.10,2013-03-21 03:32:00,